QPF
0.14 0.09 0.08 0.10 0.09 0.07 0.06 0.06 0.06 0.05 0.05 0.06 0.07 0.07 0.07 0.07 0.07 0.09 0.11 0.15 0.13 0.11 0.10 0.10 0.10 0.11 0.10 0.09 0.08 0.07 0.05 0.06 0.07 0.05 0.05 0.03 0.03 0.03 0.04 0.05 0.08 0.08 0.06
0.10 0.07 0.07 0.10 0.08 0.07 0.06 0.06 0.05 0.06 0.06 0.06 0.07 0.06 0.05 0.05 0.07 0.11 0.12 0.12 0.11 0.11 0.10 0.09 0.08 0.09 0.10 0.08 0.06 0.06 0.06 0.06 0.07 0.05 0.04 0.03 0.03 0.03 0.03 0.05 0.12 0.10 0.09
0.09 0.08 0.06 0.08 0.07 0.06 0.07 0.07 0.06 0.05 0.04 0.04 0.06 0.06 0.06 0.07 0.07 0.09 0.09 0.09 0.10 0.10 0.10 0.10 0.09 0.09 0.07 0.05 0.05 0.06 0.05 0.06 0.06 0.07 0.07 0.05 0.03 0.02 0.03 0.04 0.08 0.09 0.08
0.09 0.09 0.06 0.06 0.06 0.07 0.07 0.05 0.04 0.04 0.04 0.04 0.05 0.05 0.06 0.08 0.07 0.07 0.08 0.08 0.09 0.10 0.09 0.09 0.09 0.07 0.07 0.05 0.05 0.05 0.03 0.05 0.07 0.09 0.12 0.09 0.04 0.02 0.03 0.03 0.07 0.06 0.05
0.04 0.04 0.03 0.04 0.04 0.04 0.04 0.03 0.03 0.04 0.04 0.04 0.05 0.05 0.06 0.09 0.08 0.06 0.06 0.06 0.07 0.08 0.09 0.09 0.09 0.08 0.07 0.05 0.04 0.04 0.03 0.06 0.08 0.10 0.12 0.10 0.06 0.04 0.04 0.04 0.05 0.04 0.03
0.03 0.02 0.02 0.03 0.04 0.04 0.03 0.03 0.02 0.03 0.03 0.03 0.04 0.04 0.06 0.08 0.07 0.06 0.06 0.06 0.06 0.07 0.08 0.07 0.07 0.07 0.05 0.04 0.04 0.05 0.04 0.05 0.06 0.10 0.11 0.08 0.07 0.04 0.04 0.04 0.03 0.03 0.03
0.04 0.03 0.01 0.02 0.03 0.03 0.03 0.02 0.02 0.02 0.02 0.02 0.03 0.04 0.04 0.06 0.06 0.06 0.06 0.06 0.07 0.07 0.06 0.04 0.04 0.04 0.03 0.03 0.03 0.04 0.03 0.05 0.06 0.07 0.10 0.09 0.09 0.04 0.03 0.03 0.02 0.02 0.03
0.04 0.04 0.02 0.01 0.03 0.03 0.02 0.02 0.03 0.02 0.02 0.02 0.02 0.03 0.04 0.04 0.04 0.06 0.06 0.07 0.08 0.05 0.04 0.03 0.03 0.03 0.03 0.04 0.04 0.03 0.04 0.06 0.07 0.07 0.08 0.08 0.06 0.03 0.03 0.02 0.02 0.03 0.04
0.04 0.04 0.04 0.04 0.03 0.03 0.02 0.03 0.02 0.02 0.02 0.01 0.02 0.04 0.04 0.05 0.04 0.06 0.07 0.08 0.08 0.06 0.05 0.05 0.04 0.04 0.03 0.03 0.04 0.05 0.04 0.05 0.07 0.05 0.03 0.03 0.03 0.02 0.03 0.02 0.02 0.02 0.04
0.03 0.03 0.04 0.06 0.06 0.04 0.03 0.03 0.02 0.02 0.03 0.02 0.03 0.06 0.07 0.07 0.06 0.08 0.10 0.09 0.07 0.06 0.05 0.05 0.05 0.03 0.03 0.03 0.04 0.04 0.05 0.05 0.04 0.02 0.02 0.03 0.03 0.05 0.05 0.04 0.03 0.02 0.04
0.03 0.03 0.03 0.04 0.04 0.04 0.04 0.03 0.03 0.03 0.04 0.06 0.08 0.09 0.12 0.12 0.12 0.16 0.13 0.10 0.08 0.06 0.05 0.04 0.03 0.03 0.03 0.03 0.03 0.03 0.04 0.04 0.04 0.03 0.02 0.03 0.02 0.04 0.04 0.03 0.03 0.05 0.05
0.04 0.04 0.03 0.04 0.04 0.03 0.03 0.03 0.05 0.05 0.07 0.11 0.13 0.12 0.13 0.14 0.19 0.22 0.18 0.12 0.08 0.06 0.05 0.04 0.04 0.03 0.03 0.03 0.03 0.04 0.03 0.02 0.02 0.02 0.04 0.02 0.01 0.02 0.02 0.03 0.04 0.05 0.06
0.02 0.03 0.04 0.04 0.03 0.03 0.04 0.03 0.04 0.04 0.07 0.11 0.10 0.11 0.11 0.14 0.24 0.27 0.21 0.16 0.14 0.10 0.08 0.07 0.08 0.06 0.03 0.04 0.04 0.03 0.02 0.01 0.01 0.01 0.03 0.02 0.02 0.03 0.03 0.03 0.03 0.05 0.05
0.02 0.02 0.03 0.04 0.03 0.03 0.03 0.04 0.04 0.05 0.07 0.10 0.11 0.11 0.12 0.20 0.29 0.28 0.21 0.18 0.16 0.13 0.12 0.11 0.10 0.07 0.04 0.02 0.03 0.03 0.02 0.02 0.01 0.01 0.03 0.03 0.03 0.03 0.04 0.04 0.04 0.04 0.04
0.02 0.02 0.01 0.02 0.03 0.04 0.05 0.08 0.06 0.08 0.10 0.12 0.13 0.15 0.17 0.22 0.26 0.22 0.16 0.15 0.12 0.08 0.09 0.08 0.07 0.06 0.04 0.02 0.03 0.04 0.03 0.03 0.03 0.02 0.04 0.04 0.03 0.02 0.04 0.06 0.05 0.04 0.04
0.02 0.03 0.02 0.02 0.03 0.04 0.04 0.07 0.09 0.12 0.13 0.13 0.14 0.16 0.17 0.19 0.20 0.18 0.16 0.14 0.11 0.08 0.07 0.07 0.06 0.07 0.05 0.05 0.04 0.02 0.04 0.04 0.03 0.03 0.05 0.05 0.04 0.04 0.04 0.05 0.06 0.05 0.06
0.02 0.03 0.02 0.01 0.03 0.04 0.05 0.06 0.07 0.08 0.10 0.11 0.15 0.18 0.17 0.18 0.19 0.17 0.15 0.13 0.12 0.09 0.07 0.06 0.06 0.06 0.05 0.05 0.04 0.03 0.04 0.04 0.04 0.05 0.07 0.08 0.07 0.07 0.05 0.05 0.06 0.07 0.08
0.02 0.03 0.02 0.01 0.02 0.02 0.05 0.05 0.05 0.06 0.09 0.12 0.14 0.19 0.17 0.15 0.16 0.20 0.17 0.13 0.09 0.06 0.06 0.08 0.08 0.08 0.09 0.08 0.09 0.09 0.07 0.07 0.07 0.06 0.06 0.06 0.07 0.06 0.05 0.04 0.05 0.05 0.07
0.03 0.03 0.03 0.02 0.02 0.02 0.03 0.04 0.03 0.04 0.06 0.08 0.11 0.14 0.13 0.10 0.09 0.12 0.12 0.10 0.07 0.07 0.06 0.06 0.08 0.11 0.15 0.14 0.10 0.09 0.08 0.09 0.10 0.07 0.06 0.05 0.05 0.06 0.06 0.05 0.06 0.04 0.04
0.02 0.02 0.02 0.03 0.03 0.03 0.04 0.05 0.04 0.03 0.04 0.04 0.06 0.07 0.08 0.07 0.07 0.07 0.06 0.06 0.06 0.07 0.08 0.07 0.09 0.12 0.14 0.15 0.10 0.09 0.09 0.06 0.06 0.08 0.07 0.05 0.03 0.03 0.04 0.07 0.08 0.06 0.06
0.01 0.01 0.03 0.03 0.04 0.04 0.04 0.05 0.05 0.06 0.04 0.03 0.02 0.02 0.04 0.04 0.04 0.05 0.05 0.07 0.06 0.09 0.09 0.07 0.11 0.15 0.15 0.16 0.18 0.16 0.12 0.09 0.10 0.09 0.07 0.05 0.04 0.04 0.06 0.08 0.10 0.09 0.08
0.02 0.03 0.04 0.04 0.05 0.04 0.04 0.04 0.04 0.04 0.03 0.03 0.02 0.03 0.04 0.03 0.02 0.04 0.07 0.07 0.08 0.09 0.11 0.11 0.12 0.11 0.10 0.14 0.21 0.20 0.16 0.13 0.12 0.09 0.09 0.08 0.06 0.06 0.07 0.09 0.12 0.12 0.12
0.03 0.06 0.09 0.06 0.05 0.04 0.04 0.03 0.03 0.03 0.02 0.02 0.03 0.04 0.03 0.02 0.02 0.03 0.03 0.04 0.06 0.07 0.10 0.11 0.10 0.11 0.11 0.12 0.16 0.21 0.21 0.17 0.15 0.14 0.14 0.11 0.08 0.08 0.08 0.07 0.08 0.10 0.10
0.04 0.06 0.06 0.05 0.04 0.03 0.02 0.02 0.02 0.03 0.03 0.04 0.03 0.03 0.02 0.02 0.01 0.02 0.03 0.04 0.05 0.05 0.09 0.07 0.09 0.12 0.14 0.14 0.13 0.15 0.18 0.17 0.15 0.14 0.14 0.14 0.14 0.09 0.07 0.06 0.07 0.10 0.14
0.03 0.02 0.03 0.06 0.04 0.03 0.02 0.02 0.03 0.03 0.04 0.03 0.03 0.04 0.04 0.04 0.02 0.02 0.05 0.06 0.07 0.07 0.08 0.07 0.10 0.10 0.12 0.16 0.15 0.17 0.19 0.18 0.18 0.16 0.17 0.17 0.17 0.09 0.05 0.05 0.07 0.09 0.10
0.01 0.00 0.01 0.03 0.02 0.02 0.02 0.02 0.03 0.04 0.04 0.04 0.04 0.05 0.04 0.04 0.03 0.03 0.04 0.07 0.07 0.08 0.07 0.06 0.07 0.08 0.11 0.16 0.14 0.13 0.15 0.16 0.16 0.17 0.18 0.20 0.18 0.13 0.08 0.07 0.08 0.09 0.09
MSLP
1011.74 1011.30 1010.95 1010.79 1010.84 1011.07 1011.42 1011.80 1012.13 1012.38 1012.54 1012.65 1012.77 1012.94 1013.20 1013.53 1013.91 1014.28 1014.58 1014.79 1014.88 1014.89 1014.86 1014.82 1014.82 1014.86 1014.95 1015.05 1015.14 1015.20 1015.23 1015.23 1015.24 1015.29 1015.39 1015.55 1015.75 1015.97 1016.18 1016.36 1016.50 1016.61 1016.71
1012.10 1011.70 1011.40 1011.27 1011.35 1011.59 1011.93 1012.29 1012.59 1012.80 1012.94 1013.04 1013.16 1013.35 1013.63 1013.98 1014.36 1014.71 1014.98 1015.13 1015.17 1015.13 1015.05 1014.98 1014.96 1015.00 1015.09 1015.20 1015.30 1015.36 1015.40 1015.40 1015.42 1015.46 1015.57 1015.72 1015.93 1016.15 1016.37 1016.57 1016.72 1016.85 1016.97
1012.33 1011.99 1011.74 1011.67 1011.79 1012.07 1012.42 1012.78 1013.06 1013.25 1013.37 1013.45 1013.56 1013.74 1014.00 1014.33 1014.68 1015.00 1015.22 1015.32 1015.32 1015.25 1015.15 1015.08 1015.07 1015.12 1015.22 1015.35 1015.46 1015.53 1015.56 1015.57 1015.58 1015.63 1015.73 1015.89 1016.10 1016.33 1016.55 1016.75 1016.93 1017.07 1017.22
1012.43 1012.13 1011.95 1011.95 1012.15 1012.48 1012.87 1013.23 1013.52 1013.70 1013.79 1013.84 1013.92 1014.07 1014.30 1014.59 1014.89 1015.16 1015.33 1015.41 1015.38 1015.31 1015.22 1015.17 1015.18 1015.26 1015.39 1015.52 1015.63 1015.70 1015.72 1015.73 1015.73 1015.78 1015.88 1016.05 1016.26 1016.49 1016.72 1016.93 1017.12 1017.28 1017.45
1012.38 1012.14 1012.03 1012.12 1012.40 1012.80 1013.23 1013.63 1013.92 1014.09 1014.15 1014.18 1014.23 1014.34 1014.52 1014.76 1015.01 1015.23 1015.37 1015.43 1015.41 1015.35 1015.30 1015.30 1015.35 1015.46 1015.60 1015.73 1015.82 1015.86 1015.86 1015.84 1015.83 1015.88 1015.98 1016.16 1016.38 1016.63 1016.87 1017.10 1017.30 1017.48 1017.66
1012.23 1012.04 1012.01 1012.19 1012.55 1013.02 1013.51 1013.92 1014.22 1014.38 1014.43 1014.44 1014.46 1014.53 1014.68 1014.87 1015.08 1015.27 1015.39 1015.45 1015.45 1015.43 1015.43 1015.47 1015.57 1015.70 1015.84 1015.94 1015.99 1015.99 1015.94 1015.88 1015.85 1015.89 1016.01 1016.20 1016.45 1016.72 1016.99 1017.23 1017.44 1017.64 1017.84
1012.02 1011.88 1011.93 1012.19 1012.62 1013.15 1013.67 1014.11 1014.41 1014.56 1014.60 1014.60 1014.60 1014.66 1014.79 1014.96 1015.15 1015.31 1015.43 1015.49 1015.52 1015.55 1015.59 1015.68 1015.80 1015.94 1016.06 1016.11 1016.10 1016.03 1015.91 1015.80 1015.75 1015.78 1015.92 1016.14 1016.43 1016.74 1017.03 1017.30 1017.53 1017.74 1017.94
1011.81 1011.72 1011.84 1012.17 1012.66 1013.22 1013.76 1014.19 1014.47 1014.62 1014.65 1014.65 1014.67 1014.74 1014.87 1015.04 1015.22 1015.38 1015.50 1015.57 1015.62 1015.67 1015.75 1015.86 1015.99 1016.11 1016.18 1016.18 1016.09 1015.94 1015.75 1015.59 1015.51 1015.55 1015.70 1015.97 1016.30 1016.65 1016.99 1017.28 1017.53 1017.75 1017.96
1011.66 1011.63 1011.80 1012.19 1012.70 1013.27 1013.78 1014.18 1014.43 1014.56 1014.60 1014.62 1014.67 1014.77 1014.93 1015.12 1015.31 1015.47 1015.58 1015.65 1015.70 1015.75 1015.83 1015.94 1016.05 1016.14 1016.16 1016.10 1015.93 1015.71 1015.46 1015.26 1015.16 1015.20 1015.38 1015.68 1016.06 1016.46 1016.83 1017.16 1017.42 1017.65 1017.86
1011.61 1011.63 1011.86 1012.27 1012.79 1013.32 1013.79 1014.13 1014.33 1014.43 1014.48 1014.53 1014.63 1014.78 1014.99 1015.21 1015.41 1015.56 1015.65 1015.69 1015.70 1015.73 1015.78 1015.86 1015.95 1016.00 1015.98 1015.86 1015.65 1015.38 1015.09 1014.87 1014.76 1014.80 1015.01 1015.34 1015.75 1016.18 1016.58 1016.92 1017.20 1017.44 1017.66
1011.66 1011.75 1012.02 1012.45 1012.94 1013.41 1013.80 1014.06 1014.21 1014.27 1014.33 1014.41 1014.56 1014.78 1015.04 1015.30 1015.50 1015.63 1015.67 1015.66 1015.62 1015.58 1015.59 1015.63 1015.68 1015.70 1015.66 1015.53 1015.31 1015.03 1014.74 1014.52 1014.41 1014.46 1014.67 1015.01 1015.42 1015.85 1016.26 1016.60 1016.88 1017.12 1017.36
1011.82 1011.96 1012.28 1012.70 1013.15 1013.55 1013.84 1014.01 1014.09 1014.13 1014.18 1014.31 1014.51 1014.79 1015.09 1015.37 1015.57 1015.67 1015.65 1015.56 1015.44 1015.33 1015.27 1015.27 1015.30 1015.32 1015.29 1015.19 1015.01 1014.77 1014.52 1014.32 1014.23 1014.28 1014.47 1014.78 1015.15 1015.55 1015.92 1016.23 1016.50 1016.74 1016.98
1012.03 1012.24 1012.59 1013.00 1013.40 1013.71 1013.91 1014.00 1014.02 1014.03 1014.09 1014.24 1014.50 1014.82 1015.16 1015.44 1015.63 1015.67 1015.59 1015.41 1015.21 1015.03 1014.91 1014.87 1014.90 1014.95 1014.98 1014.95 1014.86 1014.70 1014.53 1014.38 1014.31 1014.35 1014.50 1014.73 1015.03 1015.33 1015.62 1015.87 1016.09 1016.31 1016.56
1012.26 1012.53 1012.90 1013.30 1013.65 1013.90 1014.03 1014.05 1014.02 1014.01 1014.08 1014.26 1014.54 1014.89 1015.24 1015.52 1015.67 1015.66 1015.51 1015.26 1014.99 1014.74 1014.58 1014.53 1014.58 1014.69 1014.81 1014.90 1014.93 1014.91 1014.84 1014.76 1014.71 1014.73 1014.80 1014.93 1015.09 1015.26 1015.42 1015.57 1015.72 1015.89 1016.13
1012.49 1012.80 1013.19 1013.57 1013.89 1014.09 1014.17 1014.16 1014.11 1014.10 1014.18 1014.37 1014.66 1015.02 1015.35 1015.61 1015.72 1015.67 1015.46 1015.16 1014.83 1014.55 1014.38 1014.34 1014.43 1014.62 1014.86 1015.08 1015.27 1015.39 1015.44 1015.45 1015.43 1015.40 1015.39 1015.38 1015.38 1015.38 1015.37 1015.38 1015.43 1015.53 1015.73
1012.69 1013.03 1013.42 1013.79 1014.09 1014.28 1014.35 1014.34 1014.31 1014.31 1014.39 1014.58 1014.87 1015.19 1015.50 1015.71 1015.78 1015.69 1015.45 1015.13 1014.79 1014.51 1014.35 1014.34 1014.49 1014.76 1015.12 1015.49 1015.82 1016.09 1016.28 1016.37 1016.38 1016.33 1016.22 1016.07 1015.89 1015.70 1015.51 1015.36 1015.27 1015.29 1015.42
1012.89 1013.23 1013.61 1013.98 1014.27 1014.47 1014.57 1014.59 1014.59 1014.62 1014.71 1014.89 1015.14 1015.42 1015.66 1015.82 1015.85 1015.74 1015.50 1015.18 1014.86 1014.61 1014.48 1014.52 1014.73 1015.08 1015.53 1016.02 1016.50 1016.91 1017.21 1017.40 1017.46 1017.38 1017.20 1016.93 1016.59 1016.21 1015.85 1015.53 1015.30 1015.20 1015.24
1013.12 1013.44 1013.80 1014.15 1014.45 1014.68 1014.82 1014.91 1014.96 1015.02 1015.12 1015.27 1015.46 1015.67 1015.84 1015.94 1015.93 1015.81 1015.59 1015.31 1015.04 1014.84 1014.76 1014.84 1015.09 1015.49 1016.01 1016.59 1017.17 1017.69 1018.11 1018.39 1018.51 1018.45 1018.23 1017.87 1017.41 1016.89 1016.37 1015.91 1015.54 1015.32 1015.25
1013.42 1013.70 1014.02 1014.34 1014.65 1014.91 1015.11 1015.26 1015.38 1015.47 1015.57 1015.69 1015.81 1015.92 1016.01 1016.04 1016.00 1015.88 1015.70 1015.49 1015.29 1015.15 1015.12 1015.23 1015.49 1015.91 1016.45 1017.07 1017.72 1018.33 1018.85 1019.23 1019.43 1019.42 1019.22 1018.83 1018.30 1017.70 1017.07 1016.49 1016.01 1015.67 1015.49
1013.81 1014.03 1014.28 1014.57 1014.87 1015.16 1015.42 1015.64 1015.81 1015.95 1016.04 1016.11 1016.15 1016.17 1016.17 1016.14 1016.07 1015.97 1015.83 1015.69 1015.57 1015.49 1015.50 1015.62 1015.87 1016.26 1016.79 1017.41 1018.08 1018.75 1019.36 1019.84 1020.14 1020.23 1020.08 1019.73 1019.21 1018.58 1017.91 1017.27 1016.71 1016.28 1015.99
1014.28 1014.43 1014.62 1014.84 1015.12 1015.42 1015.72 1016.00 1016.23 1016.39 1016.48 1016.51 1016.47 1016.41 1016.32 1016.23 1016.14 1016.06 1015.98 1015.91 1015.86 1015.84 1015.88 1015.99 1016.20 1016.53 1016.99 1017.57 1018.24 1018.94 1019.62 1020.20 1020.62 1020.82 1020.79 1020.53 1020.08 1019.49 1018.84 1018.19 1017.60 1017.11 1016.74
1014.80 1014.89 1014.98 1015.14 1015.37 1015.66 1015.99 1016.31 1016.59 1016.78 1016.87 1016.86 1016.77 1016.63 1016.48 1016.35 1016.25 1016.19 1016.16 1016.16 1016.17 1016.19 1016.23 1016.31 1016.46 1016.71 1017.09 1017.60 1018.23 1018.93 1019.66 1020.33 1020.87 1021.21 1021.32 1021.20 1020.87 1020.38 1019.79 1019.19 1018.62 1018.12 1017.72
1015.32 1015.34 1015.36 1015.43 1015.61 1015.87 1016.20 1016.55 1016.86 1017.09 1017.19 1017.17 1017.05 1016.87 1016.68 1016.52 1016.41 1016.38 1016.39 1016.45 1016.50 1016.55 1016.58 1016.62 1016.69 1016.85 1017.12 1017.54 1018.11 1018.80 1019.55 1020.29 1020.94 1021.42 1021.68 1021.71 1021.52 1021.17 1020.70 1020.19 1019.69 1019.23 1018.84
1015.77 1015.74 1015.69 1015.69 1015.80 1016.02 1016.35 1016.71 1017.06 1017.31 1017.45 1017.44 1017.33 1017.14 1016.93 1016.76 1016.67 1016.65 1016.70 1016.79 1016.87 1016.93 1016.94 1016.93 1016.92 1016.98 1017.15 1017.48 1017.98 1018.63 1019.38 1020.16 1020.89 1021.47 1021.87 1022.05 1022.02 1021.81 1021.48 1021.10 1020.71 1020.34 1020.00
1016.10 1016.06 1015.95 1015.89 1015.93 1016.12 1016.43 1016.81 1017.18 1017.49 1017.67 1017.70 1017.61 1017.44 1017.25 1017.10 1017.01 1017.01 1017.07 1017.18 1017.27 1017.32 1017.31 1017.25 1017.18 1017.15 1017.23 1017.47 1017.89 1018.49 1019.21 1020.00 1020.76 1021.42 1021.92 1022.21 1022.32 1022.26 1022.08 1021.84 1021.58 1021.33 1021.10
1016.30 1016.26 1016.13 1016.03 1016.03 1016.19 1016.49 1016.87 1017.28 1017.63 1017.87 1017.96 1017.92 1017.80 1017.64 1017.50 1017.43 1017.43 1017.50 1017.60 1017.69 1017.72 1017.69 1017.59 1017.47 1017.37 1017.38 1017.54 1017.89 1018.41 1019.09 1019.84 1020.60 1021.29 1021.83 1022.21 1022.42 1022.49 1022.45 1022.36 1022.25 1022.15 1022.05
Thickness
5791 5790 5788 5787 5787 5786 5785 5784 5784 5783 5782 5781 5781 5780 5780 5778 5777 5776 5774 5772 5771 5769 5768 5767 5766 5765 5764 5762 5761 5760 5759 5758 5757 5756 5755 5755 5754 5752 5751 5750 5750 5748 5747
5794 5790 5787 5786 5786 5785 5784 5783 5783 5782 5781 5780 5780 5779 5778 5777 5775 5774 5772 5771 5769 5768 5767 5765 5764 5763 5762 5761 5760 5758 5757 5757 5756 5754 5753 5752 5751 5750 5750 5749 5748 5746 5745
5796 5792 5787 5786 5785 5784 5783 5782 5781 5781 5780 5779 5778 5777 5776 5775 5774 5772 5771 5769 5768 5767 5765 5764 5763 5762 5760 5759 5758 5757 5756 5755 5754 5753 5752 5751 5749 5749 5748 5747 5746 5744 5743
5798 5793 5788 5785 5784 5783 5782 5781 5780 5779 5778 5778 5777 5776 5775 5773 5772 5771 5769 5767 5766 5765 5764 5762 5761 5760 5759 5758 5757 5756 5755 5755 5753 5752 5752 5751 5749 5747 5746 5745 5744 5742 5742
5799 5793 5787 5785 5783 5782 5781 5780 5779 5778 5777 5776 5775 5774 5773 5772 5771 5769 5768 5766 5765 5764 5763 5761 5760 5759 5758 5757 5756 5755 5755 5755 5754 5753 5752 5750 5748 5746 5745 5744 5743 5741 5740
5799 5793 5787 5785 5783 5781 5780 5779 5778 5778 5777 5775 5774 5773 5772 5770 5769 5768 5766 5765 5764 5763 5762 5760 5759 5758 5757 5756 5756 5755 5755 5755 5754 5753 5752 5750 5747 5746 5745 5743 5742 5741 5740
5800 5794 5788 5785 5782 5780 5779 5778 5778 5777 5776 5775 5773 5772 5770 5769 5768 5767 5765 5764 5762 5762 5761 5759 5758 5757 5756 5756 5755 5755 5755 5754 5755 5754 5752 5750 5747 5745 5744 5743 5742 5740 5739
5802 5794 5788 5784 5782 5780 5779 5778 5777 5777 5776 5774 5772 5771 5770 5768 5767 5766 5765 5763 5762 5760 5759 5758 5757 5756 5755 5755 5755 5755 5754 5754 5756 5755 5753 5750 5747 5745 5744 5743 5741 5740 5739
5803 5796 5790 5786 5782 5781 5780 5779 5777 5777 5775 5774 5772 5771 5770 5769 5767 5766 5764 5763 5761 5760 5759 5758 5757 5756 5755 5755 5754 5754 5754 5754 5754 5755 5754 5750 5747 5746 5744 5743 5741 5740 5738
5802 5798 5794 5790 5786 5784 5781 5779 5778 5777 5775 5774 5772 5771 5770 5769 5767 5766 5764 5763 5761 5760 5759 5758 5757 5756 5755 5755 5755 5755 5754 5754 5755 5755 5754 5750 5748 5746 5744 5742 5741 5740 5738
5798 5797 5795 5793 5790 5788 5785 5781 5779 5777 5776 5774 5773 5772 5771 5769 5768 5766 5765 5763 5762 5761 5759 5758 5758 5756 5756 5755 5755 5755 5755 5755 5756 5755 5753 5750 5748 5746 5744 5742 5741 5740 5739
5793 5795 5796 5794 5792 5790 5788 5783 5782 5780 5777 5775 5774 5773 5772 5770 5769 5768 5765 5763 5762 5761 5760 5759 5758 5757 5757 5757 5757 5756 5756 5756 5756 5755 5752 5750 5748 5746 5744 5742 5741 5740 5738
5795 5795 5794 5794 5791 5790 5788 5785 5783 5782 5779 5777 5775 5774 5772 5771 5769 5768 5766 5763 5762 5761 5760 5759 5758 5758 5759 5759 5759 5759 5758 5758 5757 5754 5751 5749 5748 5746 5744 5742 5741 5739 5737
5796 5794 5794 5792 5790 5788 5787 5785 5784 5783 5780 5777 5775 5774 5773 5771 5769 5769 5766 5765 5763 5762 5761 5760 5760 5760 5761 5761 5760 5760 5760 5758 5757 5754 5750 5749 5747 5745 5744 5742 5741 5739 5737
5796 5795 5794 5792 5788 5786 5785 5784 5784 5783 5780 5778 5775 5773 5772 5770 5769 5768 5767 5765 5764 5763 5763 5762 5761 5761 5761 5761 5760 5760 5759 5758 5756 5753 5750 5748 5747 5746 5744 5742 5740 5738 5737
5797 5796 5794 5792 5789 5786 5784 5783 5783 5781 5780 5778 5776 5774 5771 5770 5768 5767 5766 5765 5764 5763 5763 5762 5761 5760 5760 5760 5759 5759 5758 5757 5755 5753 5750 5747 5746 5745 5744 5742 5740 5738 5737
5800 5798 5795 5793 5790 5786 5784 5783 5783 5781 5780 5778 5776 5774 5771 5769 5767 5766 5765 5764 5764 5764 5763 5762 5761 5760 5759 5759 5758 5758 5756 5755 5754 5752 5750 5748 5746 5744 5743 5742 5740 5738 5736
5802 5798 5797 5796 5791 5787 5784 5783 5782 5781 5780 5778 5775 5773 5771 5769 5768 5766 5765 5764 5764 5764 5763 5761 5760 5759 5757 5756 5756 5756 5755 5754 5752 5751 5750 5748 5747 5745 5743 5741 5740 5738 5736
5803 5799 5796 5795 5791 5789 5786 5784 5783 5781 5780 5778 5776 5773 5771 5769 5768 5767 5765 5765 5764 5764 5763 5762 5760 5758 5755 5754 5754 5754 5754 5753 5751 5751 5749 5748 5747 5746 5744 5742 5740 5738 5736
5805 5801 5797 5795 5792 5790 5788 5785 5783 5781 5780 5778 5776 5773 5771 5769 5768 5767 5766 5765 5764 5762 5760 5760 5757 5756 5755 5753 5753 5753 5752 5752 5751 5751 5749 5748 5748 5746 5745 5743 5740 5737 5736
5806 5801 5797 5794 5792 5790 5787 5784 5781 5779 5779 5778 5777 5774 5772 5770 5769 5767 5766 5764 5763 5761 5759 5758 5756 5754 5752 5753 5749 5747 5749 5751 5750 5751 5750 5748 5748 5746 5744 5742 5740 5738 5736
5806 5801 5798 5794 5793 5791 5788 5786 5784 5782 5781 5780 5779 5776 5773 5771 5769 5768 5765 5763 5762 5760 5758 5757 5756 5752 5752 5753 5747 5741 5738 5740 5744 5748 5747 5746 5747 5746 5744 5742 5739 5737 5736
5807 5803 5801 5796 5795 5793 5791 5789 5787 5783 5781 5779 5777 5775 5774 5772 5770 5768 5766 5764 5762 5760 5757 5757 5755 5753 5749 5751 5751 5744 5737 5732 5736 5741 5743 5744 5743 5743 5742 5740 5738 5736 5734
5811 5809 5804 5800 5797 5795 5793 5790 5785 5780 5777 5777 5777 5776 5774 5772 5770 5768 5766 5764 5762 5760 5758 5757 5757 5755 5751 5748 5750 5750 5748 5744 5735 5731 5736 5739 5739 5738 5739 5738 5736 5734 5732
5817 5813 5808 5803 5800 5797 5794 5791 5787 5783 5781 5780 5779 5776 5774 5772 5770 5769 5766 5764 5761 5759 5758 5757 5756 5754 5753 5750 5748 5747 5746 5745 5743 5734 5728 5731 5733 5735 5735 5734 5733 5731 5729
5821 5817 5812 5805 5801 5798 5795 5792 5788 5784 5782 5779 5777 5775 5773 5772 5771 5769 5767 5763 5761 5759 5757 5756 5755 5753 5752 5751 5749 5747 5744 5741 5739 5736 5730 5727 5727 5729 5731 5731 5730 5728 5726